Flag for Greece Weather past 2 weeks in Rhodes, Rhodes, Greece

Now
75 °F

Scattered clouds.


Feels Like: 77 °F
Forecast: 67 / 74 °F
Wind: 7 mph from Southwest

Location: Rhodes Airport

Current Time: May 27, 2015 at 3:22:48 PM

Latest Report: May 27, 2015 at 2:50 PM


Visibility: 6 mi

Pressure: 29.62 "Hg

Humidity: 74%

Dew point: 66 °F

Location of RhodesLocation

Historic Weather in Rhodes — Graph

°F

Rhodes temperature yesterday

Maximum temperature yesterday: 79 °F (at 2:50 PM)
Minimum temperature yesterday: 64 °F (at 5:50 AM)
Average temperature yesterday: 70 °F

Past Weeks' High & Low Weather Summary

 TemperatureHumidityPressure
High84 °F (May 23, 4:50 PM)94% (May 16, 4:50 AM)30.18 "Hg (May 16, 4:50 AM)
Low61 °F (May 16, 12:50 AM)28% (May 19, 1:50 PM)29.59 "Hg (May 27, 9:20 AM)
Average70 °F70%29.89 "Hg
* Reported May 12 1:20 PM — May 27 1:50 PM, Rhodes, Weather by CustomWeather, © 2015

Note: Actual official high and low records may vary slightly from our data, if they occured in-between our weather recording intervals... More about our weather records

Advertising

Rhodes weather history for previous 24 hours

 ConditionsComfort  
Time TempWeatherWind HumidityBarometerVisibility
1:50 PM
Wed, May 27
75 °FPartly sunny.3 mph69%29.62 "Hg6 mi
1:20 PM75 °FLight rain. Partly sunny.8 mph69%29.62 "Hg6 mi
12:50 PM75 °FLight rain. Partly sunny.10 mph69%29.62 "Hg6 mi
12:20 PM73 °FLight rain. Partly sunny.12 mph69%29.62 "Hg6 mi
11:50 AM73 °FLight rain. Partly sunny.10 mph69%29.62 "Hg6 mi
11:20 AM73 °FLight rain. Partly sunny.9 mph69%29.62 "Hg5 mi
10:50 AM73 °FPartly sunny.12 mph69%29.62 "HgN/A
10:20 AM72 °FPartly sunny.10 mph69%29.59 "HgN/A
9:50 AM72 °FPartly sunny.12 mph69%29.59 "HgN/A
9:20 AM72 °FPartly sunny.13 mph73%29.59 "HgN/A
8:50 AM72 °FScattered clouds.17 mph73%29.62 "HgN/A
8:20 AM72 °FScattered clouds.15 mph73%29.62 "HgN/A
7:50 AM72 °FScattered clouds.10 mph73%29.62 "HgN/A
7:20 AM68 °FScattered clouds.8 mph88%29.62 "HgN/A
6:50 AM68 °FPassing clouds.10 mph88%29.62 "HgN/A
6:20 AM68 °FThunderstorms. Partly cloudy.12 mph88%29.62 "HgN/A
5:50 AM68 °FThunderstorms. Partly cloudy.3 mph88%29.65 "HgN/A
5:20 AM64 °FPassing clouds.10 mph83%29.65 "HgN/A
4:50 AM64 °FLight rain. Passing clouds.6 mph83%29.65 "HgN/A
4:20 AM64 °FPassing clouds.7 mph83%29.68 "HgN/A
3:50 AM64 °FPassing clouds.9 mph83%29.68 "HgN/A
3:20 AM64 °FPassing clouds.9 mph88%29.68 "HgN/A
2:50 AM64 °FPassing clouds.8 mph88%29.71 "HgN/A
2:20 AM64 °FPassing clouds.6 mph88%29.74 "HgN/A
1:50 AM64 °FPassing clouds.10 mph88%29.71 "HgN/A
1:20 AM66 °FPassing clouds.10 mph78%29.74 "HgN/A
12:50 AM66 °FPassing clouds.10 mph78%29.74 "HgN/A
12:20 AM66 °FPassing clouds.7 mph73%29.74 "HgN/A
11:20 PM
Tue, May 26
68 °FLight rain. Passing clouds.7 mph83%29.80 "HgN/A
10:50 PM68 °FLight rain. Passing clouds.8 mph83%29.77 "HgN/A
10:20 PM68 °FPassing clouds.12 mph83%29.80 "HgN/A
9:50 PM68 °FLight rain. Passing clouds.8 mph83%29.80 "HgN/A
9:20 PM70 °FPassing clouds.8 mph78%29.80 "HgN/A
8:50 PM70 °FPassing clouds.9 mph78%29.80 "HgN/A
8:20 PM72 °FPassing clouds.8 mph69%29.80 "HgN/A
7:50 PM72 °FPassing clouds.6 mph69%29.83 "HgN/A
6:50 PM73 °FPassing clouds.6 mph69%29.89 "HgN/A
6:20 PM73 °FPassing clouds.2 mph69%29.83 "HgN/A
5:50 PM73 °FPassing clouds.1 mph69%29.80 "HgN/A
5:20 PM73 °FPassing clouds.7 mph69%29.86 "HgN/A
4:50 PM73 °FPassing clouds.8 mph69%29.83 "HgN/A
4:20 PM75 °FPassing clouds.9 mph65%29.83 "HgN/A
3:50 PM75 °FPassing clouds.12 mph65%29.83 "HgN/A
3:20 PM79 °FPassing clouds.9 mph54%29.83 "HgN/A
Weather by CustomWeather, © 2015

See weather overviewHow to use our weather pages